This demonstration page uses our WeatherBlox Daily Observations layout. Learn more.

Left ArrowRight Arrow

34.74481, -87.66753

Hourly Observations for May 23, 2022

Temp ( °F °C ) Dew Point ( °F °C ) Humidity (%) Winds ( mph kmh ) Pressure ( in mb ) Visibility ( mi km ) Precip ( " mm )
12:53 am 00:53 Cloudy 68 20 64 17.8 87 87 NE 6 9 30.11 1020 8 13 0.00 0.00
1:53 am 01:53 Cloudy 68 20 64 17.8 87 87 ENE 6 9 30.08 1019 9 14 0.00 0.00
2:29 am 02:29 Cloudy 67 19.4 64 17.8 91 91 ENE 7 11 30.08 1019 9 14 0.00 0.00
2:53 am 02:53 Cloudy with Light Rain 67 19.4 64 17.8 91 91 ENE 7 11 30.06 1018 8 13 0.01 0.25
3:53 am 03:53 Cloudy with Light Rain 67 19.4 64 17.8 91 91 E 5 7 30.05 1018 7 11 0.01 0.25
4:53 am 04:53 Mostly Cloudy with Light Rain 67 19.4 65 18.3 93 93 E 7 11 30.03 1017 7 11 0.02 0.51
5:32 am 05:32 Cloudy with Light Rain 67 19.4 65 18.3 93 93 NE 6 9 30.04 1017 8 13 0.02 0.51
5:43 am 05:43 Cloudy with Light Rain 67 19.4 65 18.3 93 93 NE 6 9 30.04 1017 8 13 0.02 0.51
5:53 am 05:53 Cloudy with Light Rain 67 19.4 65 18.3 93 93 NE 7 11 30.04 1017 7 11 0.02 0.51
6:53 am 06:53 Cloudy with Mist and Fog 68 20 66 18.9 93 93 NNW 7 11 30.04 1017 6 10 0.01 0.25
7:53 am 07:53 Cloudy 67 19.4 64 17.8 91 91 N 8 13 30.04 1017 10 16 0.00 0.00
8:45 am 08:45 Partly Cloudy 70 21.1 66 18.9 87 87 NNE 6 9 30.06 1018 10 16 0.00 0.00
9:13 am 09:13 Mostly Cloudy 72 22.2 67 19.4 84 84 WNW 6 9 30.05 1018 10 16 0.00 0.00
9:16 am 09:16 Mostly Cloudy 72 22.2 67 19.4 84 84 NW 5 7 30.05 1018 10 16 0.00 0.00
9:53 am 09:53 Cloudy 71 21.7 66 18.9 84 84 NNW 6 9 30.06 1018 10 16 0.00 0.00
10:25 am 10:25 Cloudy 70 21.1 66 18.9 87 87 NNW 6 9 30.08 1018 10 16 0.00 0.00
10:44 am 10:44 Cloudy 67 19.4 64 17.8 91 91 NW 9 15 30.08 1019 10 16 0.00 0.00
10:53 am 10:53 Cloudy 67 19.4 64 17.8 91 91 NNW 8 13 30.07 1018 10 16 0.00 0.00
11:53 am 11:53 Cloudy 72 22.2 66 18.9 82 82 NNW 8 13 30.07 1018 10 16 0.00 0.00
12:53 pm 12:53 Cloudy 73 22.8 66 18.9 79 79 VRB 5 7 30.06 1018 10 16 0.00 0.00
1:20 pm 13:20 Cloudy 74 23.3 66 18.9 76 76 VRB 5 7 30.05 1018 10 16 0.00 0.00
1:53 pm 13:53 Cloudy 75 23.9 66 18.9 74 74 NNW 8 13 30.04 1017 10 16 0.00 0.00
2:53 pm 14:53 Cloudy 74 23.3 65 18.3 74 74 VRB 5 7 30.05 1018 10 16 0.00 0.00
3:53 pm 15:53 Cloudy 74 23.3 65 18.3 74 74 VRB 5 7 30.04 1017 10 16 0.00 0.00
4:53 pm 16:53 Cloudy 73 22.8 65 18.3 76 76 N 3 6 30.04 1017 10 16 0.00 0.00
5:53 pm 17:53 Cloudy 73 22.8 65 18.3 76 76 N 5 7 30.04 1017 10 16 0.00 0.00
6:53 pm 18:53 Cloudy 71 21.7 64 17.8 79 79 VRB 7 11 30.07 1018 10 16 0.00 0.00
7:53 pm 19:53 Cloudy 70 21.1 64 17.8 82 82 NE 7 11 30.07 1018 10 16 0.00 0.00
8:53 pm 20:53 Cloudy 69 20.6 64 17.8 84 84 NNE 7 11 30.07 1018 10 16 0.00 0.00
9:53 pm 21:53 Cloudy 68 20 63 17.2 84 84 ENE 8 13 30.09 1019 10 16 0.00 0.00
10:53 pm 22:53 Cloudy 68 20 62 16.7 81 81 E 7 11 30.05 1018 10 16 0.00 0.00
11:09 pm 23:09 Cloudy 68 20 62 16.7 81 81 ENE 8 13 30.05 1018 10 16 0.00 0.00
11:20 pm 23:20 Cloudy 68 20 62 16.7 81 81 E 7 11 30.05 1018 10 16 0.00 0.00
11:36 pm 23:36 Cloudy 68 20 62 16.7 81 81 E 6 9 30.04 1017 10 16 0.00 0.00
11:53 pm 23:53 Cloudy 68 20 62 16.7 81 81 E 7 11 30.04 1017 10 16 0.00 0.00

Powered by AerisWeather